Time,TemperatureF,DewpointF,PressureIn,WindDirection,WindDirectionDegrees,WindSpeedMPH,WindSpeedGustMPH,Humidity,HourlyPrecipIn,Conditions,Clouds,dailyrainin,SoftwareType,DateUTC
2013-01-03 00:00:00,60.5,58.8,30.07,NNW,332,2.0,4.0,94,0.00,,---,0.00,VWS V14.01,2013-01-03 05:00:00,
2013-01-03 00:02:00,60.5,58.8,30.07,NNW,332,1.0,3.0,94,0.00,,---,0.00,VWS V14.01,2013-01-03 05:02:00,
2013-01-03 00:03:00,60.5,58.8,30.07,NNW,332,1.0,3.0,94,0.00,,---,0.00,VWS V14.01,2013-01-03 05:03:00,
2013-01-03 00:08:00,60.5,58.8,30.07,NNW,338,2.0,4.0,94,0.00,,---,0.00,VWS V14.01,2013-01-03 05:08:00,
2013-01-03 00:13:00,60.5,59.1,30.07,NNW,331,1.0,4.0,95,0.00,,---,0.00,VWS V14.01,2013-01-03 05:13:00,
2013-01-03 00:18:00,60.5,58.8,30.06,NNW,336,0.0,4.0,94,0.00,,---,0.00,VWS V14.01,2013-01-03 05:18:00,
2013-01-03 00:23:00,60.5,59.1,30.06,NNW,336,1.0,4.0,95,0.00,,---,0.00,VWS V14.01,2013-01-03 05:23:00,
2013-01-03 00:28:00,60.5,58.8,30.07,NNW,334,2.0,4.0,94,0.00,,---,0.00,VWS V14.01,2013-01-03 05:28:00,
2013-01-03 00:33:00,60.5,59.1,30.07,NW,313,2.0,5.0,95,0.00,,---,0.00,VWS V14.01,2013-01-03 05:33:00,
2013-01-03 00:38:00,60.5,59.1,30.07,NNW,330,4.0,6.0,95,0.00,,---,0.00,VWS V14.01,2013-01-03 05:38:00,
2013-01-03 00:43:00,60.5,59.1,30.07,NW,315,5.0,8.0,95,0.00,,---,0.00,VWS V14.01,2013-01-03 05:43:00,
2013-01-03 00:48:00,60.4,59.0,30.07,NNW,327,5.0,8.0,95,0.00,,---,0.00,VWS V14.01,2013-01-03 05:48:00,
2013-01-03 00:53:00,60.3,58.9,30.07,NW,309,6.0,8.0,95,0.00,,---,0.00,VWS V14.01,2013-01-03 05:53:00,
2013-01-03 00:58:00,60.2,58.8,30.07,NNW,336,4.0,8.0,95,0.00,,---,0.00,VWS V14.01,2013-01-03 05:58:00,
2013-01-03 01:00:00,60.1,58.7,30.07,NW,307,5.0,8.0,95,0.00,,---,0.00,VWS V14.01,2013-01-03 06:00:00,
2013-01-03 01:03:00,60.1,58.7,30.07,North,5,5.0,6.0,95,0.00,,---,0.00,VWS V14.01,2013-01-03 06:03:00,
2013-01-03 01:08:00,59.9,58.5,30.07,North,355,5.0,7.0,95,0.00,,---,0.00,VWS V14.01,2013-01-03 06:08:00,
2013-01-03 01:13:00,59.8,58.4,30.07,North,355,4.0,8.0,95,0.00,,---,0.00,VWS V14.01,2013-01-03 06:13:00,
2013-01-03 01:18:00,59.7,58.3,30.07,NNW,329,4.0,8.0,95,0.00,,---,0.00,VWS V14.01,2013-01-03 06:18:00,
2013-01-03 01:23:00,59.5,58.1,30.07,North,355,4.0,9.0,95,0.00,,---,0.00,VWS V14.01,2013-01-03 06:23:00,
2013-01-03 01:28:00,59.4,57.7,30.07,NW,325,6.0,9.0,94,0.00,,---,0.00,VWS V14.01,2013-01-03 06:28:00,
2013-01-03 01:33:00,59.3,57.6,30.06,NNW,332,3.0,9.0,94,0.00,,---,0.00,VWS V14.01,2013-01-03 06:33:00,
2013-01-03 01:38:00,59.2,57.5,30.07,NNW,339,4.0,9.0,94,0.00,,---,0.00,VWS V14.01,2013-01-03 06:38:00,
2013-01-03 01:43:00,59.1,57.7,30.06,NW,308,8.0,10.0,95,0.00,,---,0.00,VWS V14.01,2013-01-03 06:43:00,
2013-01-03 01:48:00,59.1,57.7,30.07,NNW,340,10.0,10.0,95,0.00,,---,0.00,VWS V14.01,2013-01-03 06:48:00,
2013-01-03 01:53:00,59.0,57.6,30.07,North,10,9.0,10.0,95,0.00,,---,0.00,VWS V14.01,2013-01-03 06:53:00,
2013-01-03 01:58:00,58.8,57.4,30.07,NNE,28,6.0,11.0,95,0.00,,---,0.00,VWS V14.01,2013-01-03 06:58:00,
2013-01-03 02:00:00,58.8,57.1,30.07,NW,317,4.0,11.0,94,0.00,,---,0.00,VWS V14.01,2013-01-03 07:00:00,
2013-01-03 02:03:00,58.7,57.0,30.07,NNW,333,4.0,12.0,94,0.00,,---,0.00,VWS V14.01,2013-01-03 07:03:00,
2013-01-03 02:08:00,58.6,56.9,30.07,NNE,13,6.0,12.0,94,0.00,,---,0.00,VWS V14.01,2013-01-03 07:08:00,
2013-01-03 02:13:00,58.5,56.8,30.07,NNW,343,5.0,12.0,94,0.00,,---,0.00,VWS V14.01,2013-01-03 07:13:00,
2013-01-03 02:18:00,58.4,57.0,30.07,NNW,345,9.0,12.0,95,0.00,,---,0.00,VWS V14.01,2013-01-03 07:18:00,
2013-01-03 02:23:00,58.3,56.9,30.07,North,5,7.0,12.0,95,0.00,,---,0.00,VWS V14.01,2013-01-03 07:23:00,
2013-01-03 02:28:00,58.3,56.9,30.07,North,5,5.0,12.0,95,0.00,,---,0.00,VWS V14.01,2013-01-03 07:28:00,
2013-01-03 02:33:00,58.2,56.8,30.07,North,360,5.0,12.0,95,0.00,,---,0.00,VWS V14.01,2013-01-03 07:33:00,
2013-01-03 02:38:00,58.1,56.7,30.07,NNW,346,6.0,12.0,95,0.00,,---,0.00,VWS V14.01,2013-01-03 07:38:00,
2013-01-03 02:43:00,58.1,56.7,30.06,North,355,7.0,12.0,95,0.00,,---,0.00,VWS V14.01,2013-01-03 07:43:00,
2013-01-03 02:48:00,58.1,56.7,30.07,North,5,4.0,12.0,95,0.00,,---,0.00,VWS V14.01,2013-01-03 07:48:00,
2013-01-03 02:53:00,58.1,56.7,30.06,NNE,17,5.0,12.0,95,0.00,,---,0.00,VWS V14.01,2013-01-03 07:53:00,
2013-01-03 02:58:00,58.1,56.7,30.06,North,5,3.0,12.0,95,0.00,,---,0.00,VWS V14.01,2013-01-03 07:58:00,
2013-01-03 03:00:00,58.1,56.7,30.06,NNE,33,5.0,12.0,95,0.00,,---,0.00,VWS V14.01,2013-01-03 08:00:00,
2013-01-03 03:03:00,58.2,56.8,30.06,NNE,20,5.0,8.0,95,0.00,,---,0.00,VWS V14.01,2013-01-03 08:03:00,
2013-01-03 03:08:00,58.3,56.9,30.05,North,9,3.0,8.0,95,0.00,,---,0.00,VWS V14.01,2013-01-03 08:08:00,
2013-01-03 03:13:00,58.3,56.9,30.06,NNE,32,6.0,8.0,95,0.00,,---,0.00,VWS V14.01,2013-01-03 08:13:00,
2013-01-03 03:18:00,58.4,57.0,30.06,North,360,6.0,8.0,95,0.00,,---,0.00,VWS V14.01,2013-01-03 08:18:00,
2013-01-03 03:23:00,58.4,57.0,30.06,NNE,24,4.0,8.0,95,0.00,,---,0.00,VWS V14.01,2013-01-03 08:23:00,
2013-01-03 03:28:00,58.4,57.0,30.06,North,5,3.0,8.0,95,0.00,,---,0.00,VWS V14.01,2013-01-03 08:28:00,
2013-01-03 03:33:00,58.5,57.1,30.06,North,355,5.0,8.0,95,0.00,,---,0.00,VWS V14.01,2013-01-03 08:33:00,
2013-01-03 03:38:00,58.5,57.1,30.06,NNW,346,3.0,8.0,95,0.00,,---,0.00,VWS V14.01,2013-01-03 08:38:00,
2013-01-03 03:43:00,58.5,57.1,30.06,North,360,7.0,8.0,95,0.00,,---,0.00,VWS V14.01,2013-01-03 08:43:00,
2013-01-03 03:48:00,58.6,57.2,30.06,NE,35,1.0,8.0,95,0.00,,---,0.00,VWS V14.01,2013-01-03 08:48:00,
2013-01-03 03:53:00,58.6,57.2,30.06,North,355,6.0,9.0,95,0.00,,---,0.00,VWS V14.01,2013-01-03 08:53:00,
2013-01-03 03:58:00,58.6,57.2,30.06,North,360,1.0,9.0,95,0.00,,---,0.00,VWS V14.01,2013-01-03 08:58:00,
2013-01-03 04:00:00,58.6,57.2,30.06,North,349,7.0,9.0,95,0.00,,---,0.00,VWS V14.01,2013-01-03 09:00:00,
2013-01-03 04:03:00,58.6,57.2,30.06,NNW,348,4.0,7.0,95,0.00,,---,0.00,VWS V14.01,2013-01-03 09:03:00,
2013-01-03 04:08:00,58.5,57.1,30.07,NNW,347,7.0,7.0,95,0.00,,---,0.00,VWS V14.01,2013-01-03 09:08:00,
2013-01-03 04:13:00,58.5,57.1,30.07,NNW,338,2.0,9.0,95,0.00,,---,0.00,VWS V14.01,2013-01-03 09:13:00,
2013-01-03 04:18:00,58.5,57.1,30.07,North,360,4.0,10.0,95,0.00,,---,0.00,VWS V14.01,2013-01-03 09:18:00,
2013-01-03 04:23:00,58.5,57.1,30.07,North,355,6.0,10.0,95,0.00,,---,0.00,VWS V14.01,2013-01-03 09:23:00,
2013-01-03 04:28:00,58.5,57.1,30.07,NNE,14,5.0,10.0,95,0.00,,---,0.00,VWS V14.01,2013-01-03 09:28:00,
2013-01-03 04:33:00,58.5,57.1,30.07,NNW,342,3.0,10.0,95,0.00,,---,0.00,VWS V14.01,2013-01-03 09:33:00,
2013-01-03 04:38:00,58.4,57.0,30.07,NE,38,3.0,10.0,95,0.00,,---,0.00,VWS V14.01,2013-01-03 09:38:00,
2013-01-03 04:43:00,58.3,56.6,30.07,NNW,339,6.0,10.0,94,0.00,,---,0.00,VWS V14.01,2013-01-03 09:43:00,
2013-01-03 04:48:00,58.2,56.5,30.07,NNW,343,3.0,10.0,94,0.00,,---,0.00,VWS V14.01,2013-01-03 09:48:00,
2013-01-03 04:53:00,58.2,56.5,30.07,NW,324,4.0,10.0,94,0.00,,---,0.00,VWS V14.01,2013-01-03 09:53:00,
2013-01-03 04:58:00,58.1,56.4,30.07,NNW,344,7.0,10.0,94,0.00,,---,0.00,VWS V14.01,2013-01-03 09:58:00,
2013-01-03 05:00:00,58.1,56.4,30.07,North,355,4.0,10.0,94,0.00,,---,0.00,VWS V14.01,2013-01-03 10:00:00,
2013-01-03 05:03:00,58.1,56.4,30.07,NNW,328,4.0,7.0,94,0.00,,---,0.00,VWS V14.01,2013-01-03 10:03:00,
2013-01-03 05:08:00,58.1,56.4,30.07,North,355,1.0,11.0,94,0.00,,---,0.00,VWS V14.01,2013-01-03 10:08:00,
2013-01-03 05:13:00,58.1,56.4,30.07,NNW,331,5.0,11.0,94,0.00,,---,0.00,VWS V14.01,2013-01-03 10:13:00,
2013-01-03 05:18:00,58.1,56.4,30.07,North,350,7.0,11.0,94,0.00,,---,0.00,VWS V14.01,2013-01-03 10:18:00,
2013-01-03 05:23:00,58.1,56.4,30.07,NW,319,4.0,11.0,94,0.00,,---,0.00,VWS V14.01,2013-01-03 10:23:00,
2013-01-03 05:28:00,58.1,56.4,30.07,NE,39,4.0,11.0,94,0.00,,---,0.00,VWS V14.01,2013-01-03 10:28:00,
2013-01-03 05:33:00,58.1,56.4,30.07,NNE,13,5.0,11.0,94,0.00,,---,0.00,VWS V14.01,2013-01-03 10:33:00,
2013-01-03 05:38:00,58.1,56.4,30.07,North,9,6.0,11.0,94,0.00,,---,0.00,VWS V14.01,2013-01-03 10:38:00,
2013-01-03 05:43:00,58.2,56.5,30.08,NNW,333,3.0,11.0,94,0.00,,---,0.00,VWS V14.01,2013-01-03 10:43:00,
2013-01-03 05:48:00,58.2,56.5,30.08,North,355,3.0,11.0,94,0.00,,---,0.00,VWS V14.01,2013-01-03 10:48:00,
2013-01-03 05:53:00,58.3,56.6,30.08,North,349,10.0,11.0,94,0.00,,---,0.00,VWS V14.01,2013-01-03 10:53:00,
2013-01-03 05:58:00,58.2,56.5,30.08,NNW,340,6.0,11.0,94,0.00,,---,0.00,VWS V14.01,2013-01-03 10:58:00,
2013-01-03 06:00:00,58.3,56.6,30.09,NNW,332,3.0,11.0,94,0.00,,---,0.00,VWS V14.01,2013-01-03 11:00:00,
2013-01-03 06:03:00,58.3,56.6,30.09,North,360,2.0,8.0,94,0.00,,---,0.00,VWS V14.01,2013-01-03 11:03:00,
2013-01-03 06:08:00,58.2,56.5,30.09,NNW,327,6.0,8.0,94,0.00,,---,0.00,VWS V14.01,2013-01-03 11:08:00,
2013-01-03 06:13:00,58.2,56.5,30.09,NNW,340,7.0,9.0,94,0.00,,---,0.00,VWS V14.01,2013-01-03 11:13:00,
2013-01-03 06:18:00,58.2,56.5,30.09,NNW,338,7.0,10.0,94,0.00,,---,0.00,VWS V14.01,2013-01-03 11:18:00,
2013-01-03 06:23:00,58.1,56.4,30.10,NW,319,9.0,10.0,94,0.00,,---,0.00,VWS V14.01,2013-01-03 11:23:00,
2013-01-03 06:28:00,58.0,56.3,30.10,NNE,13,6.0,10.0,94,0.00,,---,0.00,VWS V14.01,2013-01-03 11:28:00,
2013-01-03 06:33:00,58.0,56.3,30.10,North,5,8.0,10.0,94,0.00,,---,0.00,VWS V14.01,2013-01-03 11:33:00,
2013-01-03 06:38:00,58.0,56.3,30.09,North,11,5.0,10.0,94,0.00,,---,0.00,VWS V14.01,2013-01-03 11:38:00,
2013-01-03 06:43:00,57.9,56.2,30.09,NNW,346,5.0,10.0,94,0.00,,---,0.00,VWS V14.01,2013-01-03 11:43:00,
2013-01-03 06:48:00,58.0,56.3,30.09,North,355,2.0,10.0,94,0.00,,---,0.00,VWS V14.01,2013-01-03 11:48:00,
2013-01-03 06:53:00,58.0,56.3,30.09,NNE,15,2.0,10.0,94,0.00,,---,0.00,VWS V14.01,2013-01-03 11:53:00,
2013-01-03 06:58:00,58.0,56.3,30.09,North,360,3.0,10.0,94,0.00,,---,0.00,VWS V14.01,2013-01-03 11:58:00,
2013-01-03 07:00:00,58.0,56.3,30.09,North,355,3.0,10.0,94,0.00,,---,0.00,VWS V14.01,2013-01-03 12:00:00,
2013-01-03 07:03:00,58.1,56.4,30.09,NNW,336,2.0,6.0,94,0.00,,---,0.00,VWS V14.01,2013-01-03 12:03:00,
2013-01-03 07:08:00,58.2,56.5,30.09,North,10,3.0,7.0,94,0.00,,---,0.00,VWS V14.01,2013-01-03 12:08:00,
2013-01-03 07:13:00,58.3,56.6,30.10,North,360,3.0,8.0,94,0.00,,---,0.00,VWS V14.01,2013-01-03 12:13:00,
2013-01-03 07:18:00,58.3,56.6,30.10,NNW,347,3.0,8.0,94,0.00,,---,0.00,VWS V14.01,2013-01-03 12:18:00,
2013-01-03 07:23:00,58.4,56.7,30.10,NW,315,5.0,8.0,94,0.00,,---,0.00,VWS V14.01,2013-01-03 12:23:00,
2013-01-03 07:28:00,58.4,56.7,30.10,NNW,338,4.0,8.0,94,0.00,,---,0.00,VWS V14.01,2013-01-03 12:28:00,
2013-01-03 07:33:00,58.5,56.8,30.11,North,355,4.0,8.0,94,0.00,,---,0.00,VWS V14.01,2013-01-03 12:33:00,
2013-01-03 07:38:00,58.5,56.8,30.11,NNW,331,5.0,8.0,94,0.00,,---,0.00,VWS V14.01,2013-01-03 12:38:00,
2013-01-03 07:43:00,58.5,56.8,30.11,North,5,5.0,10.0,94,0.00,,---,0.00,VWS V14.01,2013-01-03 12:43:00,
2013-01-03 07:48:00,58.5,56.5,30.12,NNE,12,4.0,10.0,93,0.00,,---,0.00,VWS V14.01,2013-01-03 12:48:00,
2013-01-03 07:53:00,58.5,56.5,30.12,NW,321,6.0,10.0,93,0.00,,---,0.00,VWS V14.01,2013-01-03 12:53:00,
2013-01-03 07:58:00,58.5,56.5,30.12,North,5,4.0,10.0,93,0.00,,---,0.00,VWS V14.01,2013-01-03 12:58:00,
2013-01-03 08:00:00,58.5,56.5,30.12,NNE,15,5.0,10.0,93,0.00,,---,0.00,VWS V14.01,2013-01-03 13:00:00,
2013-01-03 08:03:00,58.5,56.5,30.12,North,355,10.0,10.0,93,0.00,,---,0.00,VWS V14.01,2013-01-03 13:03:00,
2013-01-03 08:08:00,58.4,56.4,30.12,NW,324,5.0,10.0,93,0.00,,---,0.00,VWS V14.01,2013-01-03 13:08:00,
2013-01-03 08:13:00,58.4,56.4,30.12,North,5,9.0,11.0,93,0.00,,---,0.00,VWS V14.01,2013-01-03 13:13:00,
2013-01-03 08:18:00,58.4,56.4,30.12,North,355,6.0,12.0,93,0.00,,---,0.00,VWS V14.01,2013-01-03 13:18:00,
2013-01-03 08:23:00,58.4,56.4,30.12,North,360,4.0,12.0,93,0.00,,---,0.00,VWS V14.01,2013-01-03 13:23:00,
2013-01-03 08:28:00,58.4,56.4,30.12,North,355,8.0,12.0,93,0.00,,---,0.00,VWS V14.01,2013-01-03 13:28:00,
2013-01-03 08:33:00,58.3,56.3,30.12,NNW,346,4.0,12.0,93,0.00,,---,0.00,VWS V14.01,2013-01-03 13:33:00,
2013-01-03 08:38:00,58.1,56.1,30.12,NW,317,4.0,12.0,93,0.00,,---,0.00,VWS V14.01,2013-01-03 13:38:00,
2013-01-03 08:43:00,58.1,56.1,30.12,NW,318,4.0,12.0,93,0.00,,---,0.00,VWS V14.01,2013-01-03 13:43:00,
2013-01-03 08:48:00,58.0,56.0,30.12,NNW,348,3.0,12.0,93,0.00,,---,0.00,VWS V14.01,2013-01-03 13:48:00,
2013-01-03 08:53:00,57.9,55.9,30.12,North,355,5.0,12.0,93,0.00,,---,0.00,VWS V14.01,2013-01-03 13:53:00,
2013-01-03 08:58:00,57.9,55.9,30.12,NNW,342,5.0,12.0,93,0.00,,---,0.00,VWS V14.01,2013-01-03 13:58:00,
2013-01-03 09:00:00,57.9,55.9,30.13,North,5,3.0,12.0,93,0.00,,---,0.00,VWS V14.01,2013-01-03 14:00:00,
2013-01-03 09:03:00,57.9,55.9,30.13,North,360,6.0,9.0,93,0.00,,---,0.00,VWS V14.01,2013-01-03 14:03:00,
2013-01-03 09:08:00,58.0,56.0,30.13,North,360,6.0,9.0,93,0.00,,---,0.00,VWS V14.01,2013-01-03 14:08:00,
2013-01-03 09:13:00,58.0,56.0,30.14,North,355,6.0,9.0,93,0.00,,---,0.00,VWS V14.01,2013-01-03 14:13:00,
2013-01-03 09:18:00,58.1,56.1,30.14,North,5,7.0,9.0,93,0.00,,---,0.00,VWS V14.01,2013-01-03 14:18:00,
2013-01-03 09:23:00,58.2,56.2,30.14,NW,323,7.0,9.0,93,0.00,,---,0.00,VWS V14.01,2013-01-03 14:23:00,
2013-01-03 09:28:00,58.3,56.3,30.14,North,350,6.0,9.0,93,0.00,,---,0.00,VWS V14.01,2013-01-03 14:28:00,
2013-01-03 09:33:00,58.4,56.4,30.14,North,355,7.0,11.0,93,0.00,,---,0.00,VWS V14.01,2013-01-03 14:33:00,
2013-01-03 09:38:00,58.4,56.4,30.15,North,5,5.0,11.0,93,0.00,,---,0.00,VWS V14.01,2013-01-03 14:38:00,
2013-01-03 09:43:00,58.4,56.4,30.14,North,349,8.0,11.0,93,0.00,,---,0.00,VWS V14.01,2013-01-03 14:43:00,
2013-01-03 09:48:00,58.3,56.3,30.14,NNE,28,7.0,12.0,93,0.00,,---,0.00,VWS V14.01,2013-01-03 14:48:00,
2013-01-03 09:53:00,58.4,56.4,30.14,NNW,337,3.0,12.0,93,0.00,,---,0.00,VWS V14.01,2013-01-03 14:53:00,
2013-01-03 09:58:00,58.5,56.5,30.14,NNW,346,7.0,12.0,93,0.00,,---,0.00,VWS V14.01,2013-01-03 14:58:00,
2013-01-03 10:00:00,58.5,56.5,30.15,North,360,1.0,12.0,93,0.00,,---,0.00,VWS V14.01,2013-01-03 15:00:00,
2013-01-03 10:03:00,58.6,56.6,30.15,North,355,3.0,6.0,93,0.00,,---,0.00,VWS V14.01,2013-01-03 15:03:00,
2013-01-03 10:08:00,58.6,56.3,30.15,North,360,3.0,9.0,92,0.00,,---,0.00,VWS V14.01,2013-01-03 15:08:00,
2013-01-03 10:13:00,58.5,56.2,30.14,North,355,5.0,9.0,92,0.00,,---,0.00,VWS V14.01,2013-01-03 15:13:00,
2013-01-03 10:18:00,58.5,56.2,30.15,NNW,343,5.0,9.0,92,0.00,,---,0.00,VWS V14.01,2013-01-03 15:18:00,
2013-01-03 10:23:00,58.6,56.3,30.15,NW,322,5.0,9.0,92,0.00,,---,0.00,VWS V14.01,2013-01-03 15:23:00,
2013-01-03 10:28:00,58.8,56.5,30.15,NW,323,6.0,9.0,92,0.00,,---,0.00,VWS V14.01,2013-01-03 15:28:00,
2013-01-03 10:33:00,59.0,56.7,30.15,North,355,8.0,9.0,92,0.00,,---,0.00,VWS V14.01,2013-01-03 15:33:00,
2013-01-03 10:38:00,59.1,56.5,30.15,NNE,13,7.0,9.0,91,0.00,,---,0.00,VWS V14.01,2013-01-03 15:38:00,
2013-01-03 10:43:00,59.1,56.5,30.15,North,355,7.0,9.0,91,0.00,,---,0.00,VWS V14.01,2013-01-03 15:43:00,
2013-01-03 10:48:00,59.2,56.6,30.15,NNE,13,4.0,11.0,91,0.00,,---,0.00,VWS V14.01,2013-01-03 15:48:00,
2013-01-03 10:53:00,59.3,56.7,30.15,North,360,3.0,11.0,91,0.00,,---,0.00,VWS V14.01,2013-01-03 15:53:00,
2013-01-03 10:58:00,59.2,56.3,30.15,NNW,342,5.0,11.0,90,0.00,,---,0.00,VWS V14.01,2013-01-03 15:58:00,
2013-01-03 11:00:00,59.2,56.6,30.15,North,355,7.0,11.0,91,0.00,,---,0.00,VWS V14.01,2013-01-03 16:00:00,
2013-01-03 11:03:00,59.3,56.7,30.16,NW,325,6.0,9.0,91,0.00,,---,0.00,VWS V14.01,2013-01-03 16:03:00,
2013-01-03 11:08:00,59.3,56.4,30.16,NNW,346,4.0,9.0,90,0.00,,---,0.00,VWS V14.01,2013-01-03 16:08:00,
2013-01-03 11:13:00,59.2,56.3,30.16,NNE,15,4.0,11.0,90,0.00,,---,0.00,VWS V14.01,2013-01-03 16:13:00,
2013-01-03 11:18:00,58.9,56.0,30.16,NNE,21,6.0,11.0,90,0.00,,---,0.00,VWS V14.01,2013-01-03 16:18:00,
2013-01-03 11:23:00,58.8,55.9,30.15,NE,38,5.0,12.0,90,0.00,,---,0.00,VWS V14.01,2013-01-03 16:23:00,
2013-01-03 11:28:00,58.6,55.7,30.16,NW,315,3.0,12.0,90,0.00,,---,0.00,VWS V14.01,2013-01-03 16:28:00,
2013-01-03 11:33:00,58.5,55.6,30.16,NNW,327,7.0,12.0,90,0.00,,---,0.00,VWS V14.01,2013-01-03 16:33:00,
2013-01-03 11:38:00,58.4,55.5,30.16,NNW,334,5.0,12.0,90,0.00,,---,0.00,VWS V14.01,2013-01-03 16:38:00,
2013-01-03 11:43:00,58.2,55.3,30.16,NNE,12,1.0,12.0,90,0.00,,---,0.00,VWS V14.01,2013-01-03 16:43:00,
2013-01-03 11:48:00,58.1,55.5,30.16,North,360,6.0,12.0,91,0.00,,---,0.00,VWS V14.01,2013-01-03 16:48:00,
2013-01-03 11:53:00,58.2,55.6,30.16,NNW,332,3.0,12.0,91,0.00,,---,0.00,VWS V14.01,2013-01-03 16:53:00,
2013-01-03 11:58:00,58.1,55.2,30.16,North,5,6.0,12.0,90,0.00,,---,0.00,VWS V14.01,2013-01-03 16:58:00,
2013-01-03 12:00:00,58.1,55.5,30.16,NNW,338,4.0,12.0,91,0.00,,---,0.00,VWS V14.01,2013-01-03 17:00:00,
2013-01-03 12:03:00,58.1,55.5,30.15,NNE,21,2.0,6.0,91,0.00,,---,0.00,VWS V14.01,2013-01-03 17:03:00,
2013-01-03 12:08:00,58.3,55.7,30.14,NNE,26,5.0,11.0,91,0.00,,---,0.00,VWS V14.01,2013-01-03 17:08:00,
2013-01-03 12:13:00,58.3,55.7,30.14,NW,326,2.0,12.0,91,0.00,,---,0.00,VWS V14.01,2013-01-03 17:13:00,
2013-01-03 12:18:00,58.4,55.8,30.15,NNW,344,9.0,12.0,91,0.00,,---,0.00,VWS V14.01,2013-01-03 17:18:00,
2013-01-03 12:23:00,58.4,55.8,30.14,WNW,300,5.0,12.0,91,0.00,,---,0.00,VWS V14.01,2013-01-03 17:23:00,
2013-01-03 12:28:00,58.4,55.8,30.14,NNW,340,6.0,12.0,91,0.00,,---,0.00,VWS V14.01,2013-01-03 17:28:00,
2013-01-03 12:33:00,58.3,55.4,30.14,North,360,2.0,12.0,90,0.00,,---,0.00,VWS V14.01,2013-01-03 17:33:00,
2013-01-03 12:38:00,58.3,55.4,30.14,NW,315,6.0,12.0,90,0.00,,---,0.00,VWS V14.01,2013-01-03 17:38:00,
2013-01-03 12:43:00,58.3,55.4,30.13,NNW,335,6.0,12.0,90,0.00,,---,0.00,VWS V14.01,2013-01-03 17:43:00,
2013-01-03 12:48:00,58.1,55.2,30.13,NW,306,11.0,12.0,90,0.00,,---,0.00,VWS V14.01,2013-01-03 17:48:00,
2013-01-03 12:53:00,58.0,55.1,30.13,NNW,343,5.0,12.0,90,0.00,,---,0.00,VWS V14.01,2013-01-03 17:53:00,
2013-01-03 12:58:00,57.8,54.9,30.13,NNW,330,5.0,12.0,90,0.00,,---,0.00,VWS V14.01,2013-01-03 17:58:00,
2013-01-03 13:00:00,57.8,55.2,30.13,North,5,5.0,12.0,91,0.00,,---,0.00,VWS V14.01,2013-01-03 18:00:00,
2013-01-03 13:03:00,57.8,54.9,30.12,North,9,6.0,12.0,90,0.00,,---,0.00,VWS V14.01,2013-01-03 18:03:00,
2013-01-03 13:08:00,57.8,55.2,30.12,North,351,4.0,12.0,91,0.00,,---,0.00,VWS V14.01,2013-01-03 18:08:00,
2013-01-03 13:13:00,57.8,55.2,30.12,NNW,338,10.0,12.0,91,0.00,,---,0.00,VWS V14.01,2013-01-03 18:13:00,
2013-01-03 13:18:00,57.7,54.8,30.12,North,5,6.0,13.0,90,0.00,,---,0.00,VWS V14.01,2013-01-03 18:18:00,
2013-01-03 13:23:00,57.8,54.9,30.12,NW,306,7.0,13.0,90,0.00,,---,0.00,VWS V14.01,2013-01-03 18:23:00,
2013-01-03 13:28:00,57.8,54.9,30.12,North,355,5.0,13.0,90,0.00,,---,0.00,VWS V14.01,2013-01-03 18:28:00,
2013-01-03 13:33:00,57.7,54.8,30.12,NNW,338,7.0,17.0,90,0.00,,---,0.00,VWS V14.01,2013-01-03 18:33:00,
2013-01-03 13:38:00,57.7,54.8,30.11,NW,321,6.0,17.0,90,0.00,,---,0.00,VWS V14.01,2013-01-03 18:38:00,
2013-01-03 13:43:00,57.7,54.8,30.12,NW,321,8.0,17.0,90,0.00,,---,0.00,VWS V14.01,2013-01-03 18:43:00,
2013-01-03 13:48:00,57.6,54.7,30.11,NW,313,9.0,17.0,90,0.00,,---,0.00,VWS V14.01,2013-01-03 18:48:00,
2013-01-03 13:53:00,57.6,54.7,30.11,NNW,329,6.0,17.0,90,0.00,,---,0.00,VWS V14.01,2013-01-03 18:53:00,
2013-01-03 13:58:00,57.5,54.6,30.11,NNE,16,10.0,17.0,90,0.00,,---,0.00,VWS V14.01,2013-01-03 18:58:00,
2013-01-03 14:00:00,57.5,54.6,30.12,NNE,13,6.0,17.0,90,0.00,,---,0.00,VWS V14.01,2013-01-03 19:00:00,
2013-01-03 14:03:00,57.6,54.7,30.11,NW,323,7.0,7.0,90,0.00,,---,0.00,VWS V14.01,2013-01-03 19:03:00,
2013-01-03 14:08:00,57.7,54.8,30.11,NNW,327,4.0,9.0,90,0.00,,---,0.00,VWS V14.01,2013-01-03 19:08:00,
2013-01-03 14:13:00,57.6,54.7,30.11,NNW,333,3.0,9.0,90,0.00,,---,0.00,VWS V14.01,2013-01-03 19:13:00,
2013-01-03 14:18:00,57.8,54.9,30.11,NW,317,6.0,9.0,90,0.00,,---,0.00,VWS V14.01,2013-01-03 19:18:00,
2013-01-03 15:00:00,57.9,54.1,30.12,NW,317,6.0,14.0,87,0.00,,---,0.00,VWS V14.01,2013-01-03 20:00:00,
2013-01-03 16:00:00,54.9,52.9,30.14,NNW,348,4.0,9.0,93,0.05,,---,0.05,VWS V14.01,2013-01-03 21:00:00,
2013-01-03 17:00:00,54.5,52.5,30.16,NNW,333,6.0,8.0,93,0.05,,---,0.05,VWS V14.01,2013-01-03 22:00:00,
2013-01-03 18:00:00,54.2,52.5,30.17,NW,323,1.0,8.0,94,0.01,,---,0.06,VWS V14.01,2013-01-03 23:00:00,
2013-01-03 19:00:00,50.9,49.2,30.20,NW,321,5.0,14.0,94,0.03,,---,0.08,VWS V14.01,2013-01-04 00:00:00,
2013-01-03 20:00:00,49.7,48.3,30.21,NW,322,7.0,10.0,95,0.02,,---,0.08,VWS V14.01,2013-01-04 01:00:00,
2013-01-03 21:00:00,49.0,47.6,30.22,WNW,300,5.0,14.0,95,0.00,,---,0.08,VWS V14.01,2013-01-04 02:00:00,
2013-01-03 22:00:00,49.6,48.2,30.24,WNW,295,3.0,9.0,95,0.00,,---,0.08,VWS V14.01,2013-01-04 03:00:00,
2013-01-03 23:00:00,49.6,48.2,30.23,NNW,332,3.0,8.0,95,0.00,,---,0.08,VWS V14.01,2013-01-04 04:00:00,